Flag for Canada Weather past 2 weeks in Fort Liard, Northwest Territories, Canada

Now
-27 °F

Extremely cold.


Feels Like: -27 °F
Forecast: -18 / 0 °F
Wind: No wind

Location: Lindberg Landing

Current Time: Feb 1, 2015 at 10:32:30 AM

Latest Report: Feb 1, 2015 at 9:00 AM


Visibility: N/A

Pressure: 30.52 "Hg

Humidity: 71%

Dew point: -33 °F

Location of Fort LiardLocation

Historic Weather in Fort Liard — Graph

°F

Fort Liard temperature yesterday

Maximum temperature yesterday: -19 °F (at 3:00 PM)
Minimum temperature yesterday: -36 °F (at 9:00 AM)
Average temperature yesterday: -28 °F

Past Weeks' High & Low Weather Summary

 TemperatureHumidityPressure
High11 °F (Jan 22, 7:00 AM)97% (Jan 21, 6:00 PM)30.82 "Hg (Jan 21, 6:00 PM)
Low-36 °F (Jan 31, 9:00 AM)51% (Jan 28, 12:00 PM)29.29 "Hg (Jan 21, 12:00 PM)
Average-8 °F80%30.06 "Hg
* Reported Jan 17 9:00 AM — Feb 1 9:00 AM, Fort Liard, Weather by CustomWeather, © 2014

Note: Actual official high and low records may vary slightly from our data, if they occured in-between our weather recording intervals... More about our weather records

Advertising

Fort Liard weather history for previous 24 hours

 ConditionsComfort  
Time TempWeatherWind HumidityBarometerVisibility
9:00 AM
Feb 1
-27 °FExtremely cold.No wind71%30.52 "HgN/A
8:00 AM-27 °FExtremely cold.No wind72%30.52 "HgN/A
7:00 AM-25 °FExtremely cold.No wind72%30.53 "HgN/A
6:00 AM-23 °FExtremely cold.No wind67%30.54 "HgN/A
5:00 AM-23 °FExtremely cold.No wind73%30.54 "HgN/A
4:00 AM-22 °FExtremely cold.1 mph74%30.54 "HgN/A
3:00 AM-20 °FExtremely cold.1 mph75%30.54 "HgN/A
2:00 AM-16 °FExtremely cold.1 mph77%30.54 "HgN/A
1:00 AM-14 °FExtremely cold.5 mph79%30.54 "HgN/A
12:00 AM-16 °FExtremely cold.1 mph78%30.54 "HgN/A
11:00 PM
Jan 31
-19 °FExtremely cold.No wind75%30.54 "HgN/A
10:00 PM-23 °FExtremely cold.No wind75%30.51 "HgN/A
9:00 PM-27 °FExtremely cold.No wind72%30.51 "HgN/A
8:00 PM-26 °FExtremely cold.No wind73%30.49 "HgN/A
7:00 PM-25 °FExtremely cold.No wind73%30.47 "HgN/A
6:00 PM-24 °FExtremely cold.No wind74%30.47 "HgN/A
5:00 PM-21 °FExtremely cold.No wind74%30.48 "HgN/A
4:00 PM-20 °FExtremely cold.No wind71%30.49 "HgN/A
3:00 PM-19 °FExtremely cold.2 mph76%30.50 "HgN/A
2:00 PM-24 °FExtremely cold.No wind63%30.50 "HgN/A
1:00 PM-26 °FExtremely cold.1 mph67%30.55 "HgN/A
12:00 PM-29 °FExtremely cold.2 mph70%30.57 "HgN/A
11:00 AM-34 °FExtremely cold.No wind62%30.60 "HgN/A
10:00 AM-36 °FExtremely cold.No wind66%30.62 "HgN/A
Weather by CustomWeather, © 2014

See weather overviewHow to use our weather pages